Weather History for KAHQ - March, 2014

Change the Weather History Date:

Thursday, March 6, 2014

  Actual Average Record
Temperature  
Mean Temperature 29 °F -  
Max Temperature 42 °F 47 °F 79 °F (1972)
Min Temperature 16 °F 23 °F 2 °F (1989)
Degree Days  
Heating Degree Days 36    
Moisture  
Dew Point 23 °F    
Average Humidity 81    
Maximum Humidity 91    
Minimum Humidity 56    
Precipitation  
Precipitation 0.00 in - - ()
Sea Level Pressure  
Sea Level Pressure 30.04 in    
Wind  
Wind Speed 11 mph (SSE)    
Max Wind Speed 25 mph    
Max Gust Speed 31 mph    
Visibility 5 miles    
Events      
Averages and records for this station are not official NWS values.
T = Trace of Precipitation, MM = Missing Value Source: NWS Daily Summary

Daily Weather History Graph

Daily Weather History Graph

Search for Another Location

Airport or City:

Trip Planner

Search our weather history database for the weather conditions in past years. The results will help you decide how hot, cold, wet, or windy it might be!

Date:

Astronomy

Mar. 06, 2014 Rise Set
Actual Time 6:52 AM CST 6:23 PM CST
Civil Twilight 6:25 AM CST 6:50 PM CST
Nautical Twilight 5:53 AM CST 7:22 PM CST
Astronomical Twilight 5:21 AM CST 7:54 PM CST
Moon 9:58 AM CST (3/6) No Moon Set
Length of Visible Light 12h 25m
Length of Day
11h 30m
Waxing Crescent, 32% of the Moon is Illuminated
Mar 6
Waxing Crescent
Mar 8
First Quarter
Mar 16
Full
Mar 23
Last Quarter
Mar 30
New

Hourly Weather History & Observations

Time (CST) Temp. Windchill Dew Point Humidity Pressure Visibility Wind Dir Wind Speed Gust Speed Precip Events Conditions
12:15 AM 19.8 °F 10.8 °F 16.2 °F 86% 30.26 in 7.0 mi SE 6.9 mph - N/A   Overcast
12:35 AM 22.1 °F 13.7 °F 18.3 °F 85% 30.27 in 7.0 mi SSE 6.9 mph - N/A   Overcast
12:55 AM 19.4 °F 11.5 °F 15.6 °F 85% 30.27 in 5.0 mi South 5.8 mph - N/A   Scattered Clouds
1:15 AM 17.6 °F 10.7 °F 14.5 °F 88% 30.26 in 5.0 mi SSE 4.6 mph - N/A   Clear
1:35 AM 16.2 °F 10.6 °F 13.1 °F 88% 30.26 in 4.0 mi SSE 3.5 mph - N/A   Mostly Cloudy
1:55 AM 18.0 °F 12.7 °F 15.1 °F 88% 30.26 in 5.0 mi SSE 3.5 mph - N/A   Overcast
2:15 AM 19.4 °F 14.3 °F 16.5 °F 89% 30.25 in 5.0 mi South 3.5 mph - N/A   Overcast
2:35 AM 20.7 °F 13.0 °F 17.8 °F 89% 30.24 in 5.0 mi SSE 5.8 mph - N/A   Overcast
2:55 AM 21.7 °F 12.3 °F 18.5 °F 87% 30.23 in 5.0 mi SSE 8.1 mph - N/A   Overcast
3:15 AM 22.1 °F 10.6 °F 19.0 °F 88% 30.23 in 5.0 mi SSE 11.5 mph - N/A   Overcast
3:35 AM 22.6 °F 11.3 °F 19.4 °F 87% 30.22 in 5.0 mi South 11.5 mph - N/A   Overcast
3:55 AM 22.6 °F 11.9 °F 19.4 °F 87% 30.21 in 4.0 mi South 10.4 mph - N/A   Overcast
4:15 AM 22.5 °F 11.7 °F 19.4 °F 88% 30.22 in 4.0 mi South 10.4 mph - N/A   Overcast
4:35 AM 22.1 °F 12.0 °F 19.4 °F 89% 30.21 in 3.0 mi South 9.2 mph - N/A   Overcast
4:55 AM 22.1 °F 10.6 °F 19.4 °F 89% 30.21 in 3.0 mi South 11.5 mph - N/A   Overcast
5:15 AM 22.1 °F 12.0 °F 19.6 °F 90% 30.19 in 3.0 mi South 9.2 mph - N/A   Overcast
5:35 AM 22.1 °F 10.6 °F 19.6 °F 90% 30.19 in 2.0 mi South 11.5 mph - N/A   Overcast
5:55 AM 22.1 °F 10.0 °F 19.8 °F 91% 30.18 in 1.8 mi SSE 12.7 mph - N/A   Overcast
6:15 AM 22.1 °F 9.5 °F 19.9 °F 91% 30.18 in 1.5 mi South 13.8 mph - N/A   Overcast
6:35 AM 22.1 °F 11.3 °F 19.9 °F 91% 30.18 in 1.8 mi South 10.4 mph - N/A   Overcast
6:55 AM 21.9 °F 11.0 °F 19.6 °F 91% 30.17 in 1.2 mi South 10.4 mph - N/A   Overcast
7:15 AM 22.1 °F 11.3 °F 19.9 °F 91% 30.17 in 1.2 mi South 10.4 mph - N/A   Overcast
7:35 AM 22.6 °F 11.9 °F 20.3 °F 91% 30.16 in 1.0 mi South 10.4 mph - N/A   Overcast
7:55 AM 22.8 °F 10.9 °F 20.3 °F 90% 30.15 in 1.0 mi South 12.7 mph - N/A   Overcast
8:15 AM 23.0 °F 12.4 °F 20.7 °F 91% 30.15 in 1.0 mi South 10.4 mph - N/A   Overcast
8:35 AM 23.2 °F 12.0 °F 20.8 °F 91% 30.15 in 1.0 mi South 11.5 mph - N/A   Overcast
8:50 AM 23.4 °F 10.1 °F 21.0 °F 91% 30.15 in 1.0 mi SSE 16.1 mph - N/A   Overcast
9:15 AM 23.9 °F 11.2 °F 21.6 °F 91% 30.14 in 1.2 mi South 15.0 mph - N/A   Overcast
9:35 AM 24.3 °F 11.7 °F 21.9 °F 91% 30.13 in 1.5 mi South 15.0 mph - N/A   Overcast
9:55 AM 24.6 °F 11.7 °F 22.3 °F 91% 30.12 in 1.8 mi SSE 16.1 mph - N/A   Overcast
10:15 AM 25.7 °F 12.7 °F 23.4 °F 91% 30.11 in 3.0 mi South 17.3 mph 21.9 mph N/A   Overcast
10:35 AM 27.0 °F 14.3 °F 24.3 °F 90% 30.11 in 4.0 mi SSE 17.3 mph - N/A   Overcast
10:55 AM 28.4 °F 17.0 °F 23.7 °F 83% 30.11 in 4.0 mi South 15.0 mph - N/A   Overcast
11:15 AM 29.7 °F 18.2 °F 23.9 °F 79% 30.10 in 5.0 mi South 16.1 mph - N/A   Haze
11:35 AM 30.7 °F 19.2 °F 24.6 °F 78% 30.08 in 5.0 mi South 17.3 mph - N/A   Haze
11:55 AM 31.6 °F 20.4 °F 24.8 °F 76% 30.07 in 5.0 mi SSE 17.3 mph - N/A   Haze
12:15 PM 32.7 °F 20.7 °F 25.3 °F 74% 30.06 in 5.0 mi South 20.7 mph 24.2 mph N/A   Haze
12:35 PM 34.5 °F 22.8 °F 25.9 °F 71% 30.04 in 5.0 mi SSE 21.9 mph 27.6 mph N/A   Haze
12:55 PM 35.8 °F 24.8 °F 26.2 °F 68% 30.02 in 5.0 mi South 20.7 mph - N/A   Haze
1:15 PM 37.4 °F 26.4 °F 26.4 °F 65% 30.01 in 7.0 mi South 23.0 mph - N/A   Scattered Clouds
1:30 PM 37.2 °F 25.6 °F 26.4 °F 65% 30.00 in 7.0 mi South 25.3 mph 31.1 mph N/A   Scattered Clouds
1:55 PM 38.7 °F 28.6 °F 26.8 °F 62% 29.97 in 7.0 mi South 20.7 mph 28.8 mph N/A   Clear
2:15 PM 40.5 °F 30.2 °F 27.5 °F 60% 29.96 in 7.0 mi SSE 24.2 mph 28.8 mph N/A   Clear
2:35 PM 41.0 °F 31.1 °F 27.3 °F 58% 29.95 in 7.0 mi South 23.0 mph 29.9 mph N/A   Clear
2:55 PM 40.3 °F 30.7 °F 27.1 °F 59% 29.93 in 7.0 mi South 20.7 mph 29.9 mph N/A   Clear
3:15 PM 40.6 °F 30.9 °F 27.1 °F 59% 29.93 in 7.0 mi South 21.9 mph 29.9 mph N/A   Clear
3:35 PM 40.3 °F 30.7 °F 27.3 °F 60% 29.92 in 7.0 mi South 20.7 mph 28.8 mph N/A   Clear
3:55 PM 41.4 °F 32.1 °F 28.0 °F 59% 29.91 in 7.0 mi South 20.7 mph 28.8 mph N/A   Clear
4:15 PM 42.3 °F 32.6 °F 27.5 °F 56% 29.90 in 7.0 mi South 24.2 mph 28.8 mph N/A   Clear
4:35 PM 42.4 °F 32.8 °F 28.0 °F 57% 29.89 in 7.0 mi South 24.2 mph 27.6 mph N/A   Clear
4:55 PM 41.4 °F 32.1 °F 27.9 °F 59% 29.87 in 10.0 mi South 20.7 mph - N/A   Clear
5:15 PM 40.5 °F 30.9 °F 27.5 °F 60% 29.86 in 10.0 mi South 20.7 mph - N/A   Clear
5:35 PM 39.6 °F 30.0 °F 27.5 °F 62% 29.87 in 7.0 mi South 19.6 mph 26.5 mph N/A   Clear
5:55 PM 38.3 °F 28.7 °F 27.5 °F 65% 29.87 in 7.0 mi South 18.4 mph 24.2 mph N/A   Clear
6:10 PM 37.2 °F 27.6 °F 27.5 °F 68% 29.87 in 7.0 mi South 17.3 mph 20.7 mph N/A   Clear
6:35 PM 35.2 °F 26.6 °F 27.5 °F 73% 29.86 in 7.0 mi South 12.7 mph - N/A   Clear
6:55 PM 34.0 °F 25.5 °F 27.5 °F 77% 29.85 in 7.0 mi South 11.5 mph - N/A   Clear
7:15 PM 33.1 °F 26.1 °F 27.3 °F 79% 29.86 in 7.0 mi South 8.1 mph - N/A   Clear
7:35 PM 32.4 °F 25.3 °F 27.5 °F 82% 29.85 in 7.0 mi South 8.1 mph - N/A   Clear
7:55 PM 32.2 °F 25.0 °F 27.7 °F 83% 29.85 in 5.0 mi South 8.1 mph - N/A   Clear
8:15 PM 31.1 °F 25.4 °F 26.6 °F 83% 29.85 in 5.0 mi South 5.8 mph - N/A   Clear
8:35 PM 31.1 °F 23.7 °F 26.8 °F 84% 29.84 in 5.0 mi SSE 8.1 mph - N/A   Clear
8:55 PM 30.7 °F 22.6 °F 27.0 °F 86% 29.84 in 5.0 mi SSE 9.2 mph - N/A   Clear
9:15 PM 30.2 °F 21.9 °F 26.6 °F 86% 29.84 in 5.0 mi SSE 9.2 mph - N/A   Clear
9:35 PM 30.9 °F 22.2 °F 27.3 °F 86% 29.84 in 5.0 mi SSE 10.4 mph - N/A   Clear
9:55 PM 29.8 °F 23.0 °F 26.6 °F 88% 29.84 in 4.0 mi SSE 6.9 mph - N/A   Clear
10:15 PM 28.0 °F 20.0 °F 24.8 °F 88% 29.84 in 4.0 mi SE 8.1 mph - N/A   Clear
10:35 PM 27.1 °F 18.9 °F 24.4 °F 90% 29.83 in 3.0 mi SE 8.1 mph - N/A   Clear
10:55 PM 28.2 °F 18.9 °F 25.7 °F 90% 29.82 in 3.0 mi SE 10.4 mph - N/A   Clear
11:15 PM 28.0 °F 18.6 °F 25.2 °F 89% 29.80 in 4.0 mi SE 10.4 mph - N/A   Clear
11:35 PM 28.0 °F 18.1 °F 25.3 °F 90% 29.79 in 3.0 mi SE 11.5 mph - N/A   Clear
11:55 PM 28.2 °F 20.2 °F 25.5 °F 90% 29.79 in 4.0 mi SE 8.1 mph - N/A   Clear